Wind_Speed
7 3 2 3 4 4 5 5 2 3 1 2 6 6 6 6 6 4 10 19 21 19 17 15 8 9 12 14 15 18 19 22 22 24 24 24 24 27 28 26 25 25 22 20 19 19 18 19 19
4 2 1 2 4 6 7 6 8 2 4 9 5 5 7 5 3 6 6 22 19 18 17 15 11 10 10 14 14 17 20 22 24 25 26 26 26 27 29 26 26 25 22 20 19 18 18 17 17
3 2 3 3 4 7 4 2 2 1 7 4 2 3 4 2 3 6 13 17 18 16 17 15 12 12 10 13 15 17 20 22 24 25 27 27 27 28 29 27 26 26 23 20 18 21 18 17 18
2 3 3 5 12 6 2 2 4 8 1 2 8 8 1 5 6 11 16 16 16 16 16 17 13 9 9 6 11 15 18 20 23 25 26 28 27 27 27 27 27 27 23 23 21 20 18 19 20
2 1 3 4 8 3 4 4 5 9 8 7 8 7 8 5 7 15 19 19 18 17 16 16 16 12 5 3 9 13 16 19 21 23 25 26 28 28 29 27 28 28 24 22 22 21 17 17 20
3 1 3 6 3 2 2 4 5 6 7 11 8 9 6 6 18 23 21 20 17 15 14 16 16 15 12 6 1 4 11 15 18 22 23 26 28 29 29 29 29 28 25 23 21 21 18 18 19
2 3 2 4 6 4 2 3 2 4 7 4 10 8 4 5 25 24 24 20 17 14 13 14 15 15 13 9 8 2 4 12 16 18 22 23 25 28 30 30 30 29 26 23 22 21 20 20 20
1 2 3 4 3 3 2 3 3 5 7 10 2 5 6 16 28 26 23 20 16 15 15 16 17 16 13 11 8 9 9 4 11 16 18 21 23 24 26 28 30 29 26 24 23 22 21 20 20
1 3 4 3 3 1 0 4 2 5 12 9 8 11 10 18 21 22 23 20 19 18 17 18 17 17 14 12 10 7 6 8 8 8 19 20 20 20 25 27 28 28 26 25 23 22 22 20 21
2 3 1 1 2 6 8 9 11 9 14 15 15 8 17 19 20 19 19 21 22 23 23 18 19 18 14 11 10 9 7 6 6 5 9 12 23 17 21 24 26 27 25 24 22 22 22 21 20
1 2 2 3 4 5 8 12 12 13 14 5 10 14 19 17 15 16 17 17 21 23 22 21 21 20 17 13 10 10 9 7 6 5 4 7 10 18 27 22 26 29 25 20 20 21 22 22 21
3 2 3 2 2 6 11 10 9 10 7 4 7 10 14 16 16 16 17 19 22 23 22 23 20 20 19 16 14 11 11 8 7 6 5 5 5 7 13 17 16 27 22 19 20 20 20 21 20
3 1 4 7 11 10 6 10 11 12 3 4 8 9 12 14 18 19 18 18 20 22 23 22 23 20 20 19 16 15 13 10 7 8 7 6 6 9 6 13 20 22 18 21 21 20 20 20 21
0 8 11 8 6 4 7 11 6 2 3 5 7 9 12 14 17 20 20 20 21 22 24 24 24 22 19 19 18 16 14 12 9 8 8 8 9 8 11 10 22 27 29 29 26 25 26 22 21
3 5 7 2 2 3 6 12 9 1 3 7 11 12 13 14 18 18 20 22 22 23 23 24 24 23 20 19 17 15 18 12 10 8 7 7 9 9 10 11 17 29 32 33 32 32 29 26 23
2 2 8 3 4 1 2 13 2 2 5 8 10 11 13 15 17 17 19 21 21 22 23 23 22 22 22 17 15 14 16 15 12 7 8 7 9 12 12 13 14 19 32 36 29 31 29 27 26
3 9 14 10 2 5 7 15 1 3 3 7 8 10 12 14 16 18 20 20 20 20 22 22 20 18 18 17 14 13 13 16 12 12 14 7 10 14 15 15 17 17 28 32 34 29 27 27 27
7 9 10 16 7 10 18 23 17 7 6 4 8 10 11 12 14 19 20 19 19 20 19 19 15 16 19 17 12 11 10 12 13 14 12 8 11 15 17 16 16 20 25 25 29 30 31 29 27
6 10 19 17 11 10 17 19 18 9 8 5 7 10 12 13 17 17 19 19 19 19 19 19 15 17 18 16 8 3 7 7 8 10 11 10 12 14 16 17 15 22 25 30 33 29 27 26 28
7 15 14 9 9 14 17 22 16 9 8 2 8 11 12 14 14 18 18 19 20 20 20 19 15 16 17 16 13 7 7 8 8 9 10 9 8 11 14 16 16 20 25 27 25 26 19 19 30
8 10 9 17 22 10 10 10 2 6 7 5 8 9 10 12 15 15 18 18 19 20 20 19 15 14 16 17 13 8 8 9 10 7 6 6 8 12 13 15 18 20 25 23 27 25 24 18 29
6 3 12 17 7 5 2 6 4 6 7 7 11 12 12 13 13 13 17 19 18 19 19 18 14 12 13 15 13 10 7 6 4 6 6 5 9 12 13 19 22 23 25 30 26 26 28 22 22
7 14 13 3 4 5 5 4 2 3 7 4 12 12 12 12 13 14 16 17 16 17 18 16 14 11 13 13 11 9 7 6 5 3 4 4 9 9 11 13 22 26 27 29 29 29 30 27 26
10 6 3 1 2 4 4 2 5 3 2 7 12 13 13 14 13 13 16 15 15 16 15 14 15 12 13 12 11 10 8 7 5 5 4 5 6 6 6 7 11 18 21 27 27 27 25 25 25
9 7 4 3 2 3 4 5 9 5 4 5 11 12 11 12 13 13 13 16 16 16 16 15 16 15 14 12 11 10 8 6 6 4 4 4 5 6 6 1 5 11 12 17 19 21 18 18 22
6 3 2 7 5 7 2 6 2 1 3 6 7 8 8 11 11 12 14 15 15 15 15 16 16 15 13 11 11 10 9 7 6 7 6 9 8 7 7 8 10 14 16 18 22 23 22 20 21
4 2 2 4 2 4 4 4 4 2 5 10 9 9 10 12 12 12 15 15 15 15 15 15 15 14 13 11 10 10 10 9 9 9 12 13 12 12 13 14 18 20 22 22 24 30 29 26 28
2 7 1 2 5 7 5 5 5 2 11 15 11 10 10 11 11 11 12 14 14 14 13 13 13 14 13 11 10 11 11 12 12 14 18 19 19 19 20 23 23 26 28 30 28 37 36 35 34
3 3 3 2 3 4 6 1 2 3 9 13 11 9 9 9 10 10 13 14 13 13 13 13 14 14 13 12 13 14 15 17 18 21 23 24 24 25 27 30 31 34 35 36 33 30 42 41 38
1 2 3 2 2 4 4 6 4 2 5 8 10 7 7 7 8 9 12 12 12 13 14 14 15 16 15 14 16 18 20 22 25 27 28 30 32 32 33 36 42 44 43 40 37 40 41 35 37
Wind_Direction
8 69 114 155 199 249 254 256 283 231 186 63 314 271 292 304 276 321 343 1 351 346 340 338 273 249 236 220 219 215 206 204 202 200 191 189 188 187 183 182 181 176 170 166 165 166 168 171 175
20 93 81 139 237 233 243 247 244 288 325 317 295 272 240 265 337 332 358 349 352 349 346 336 307 271 239 225 222 215 212 209 208 207 201 195 193 192 191 188 187 185 177 170 172 171 171 178 178
70 56 203 208 218 246 267 243 347 10 326 328 307 327 324 345 39 360 345 342 349 356 356 349 320 289 257 238 225 219 215 214 210 210 209 203 199 197 198 197 192 189 182 171 173 173 171 178 173
185 161 123 233 237 249 280 100 341 306 294 52 347 274 170 55 351 352 347 349 352 353 357 359 353 334 298 231 230 230 222 222 215 212 212 210 207 204 207 202 196 193 188 175 173 175 181 183 182
54 199 203 245 254 269 262 322 307 297 300 304 332 278 293 46 25 0 353 351 349 348 352 4 6 4 339 251 233 230 232 225 224 220 215 213 211 208 208 207 202 198 194 188 180 184 192 190 189
131 282 218 245 239 241 256 319 289 277 288 302 293 294 269 114 10 346 340 339 339 338 345 357 7 6 353 359 203 226 233 226 232 230 226 221 215 214 212 210 207 205 199 195 190 191 200 196 193
193 210 304 288 287 264 191 340 270 314 294 324 326 279 290 203 346 336 332 327 329 334 339 342 351 360 356 352 350 323 246 228 227 229 233 232 226 221 216 214 209 208 203 198 194 198 205 200 198
133 224 206 211 257 279 141 320 317 293 300 323 297 273 289 331 333 327 322 324 325 332 336 334 335 339 346 349 358 338 339 318 238 228 228 234 236 230 226 219 211 210 207 203 200 203 208 210 200
262 206 242 242 214 349 152 312 308 295 283 288 280 305 334 329 334 336 333 328 328 327 331 332 329 328 326 337 340 349 339 335 312 266 237 233 235 236 234 226 217 210 208 204 206 207 204 209 199
234 235 253 129 230 271 284 287 301 288 281 279 277 277 331 338 342 341 339 330 329 326 322 326 324 321 317 307 326 324 331 332 330 315 271 256 238 235 236 230 225 217 211 206 207 205 202 203 200
142 269 139 230 250 289 290 282 285 278 282 311 307 315 325 328 332 334 331 326 321 319 317 318 317 314 312 297 291 310 314 302 311 320 304 260 248 240 244 237 230 224 208 198 203 205 201 195 197
247 237 248 314 262 301 291 300 264 267 289 305 304 315 316 321 322 324 323 323 321 319 315 315 313 310 303 297 274 267 289 287 292 299 309 293 280 258 242 242 233 208 192 200 202 203 200 201 199
241 297 270 266 288 290 270 254 269 266 290 307 321 318 321 318 317 316 310 312 317 316 315 313 312 307 300 292 278 262 251 252 260 288 293 278 272 254 254 239 231 206 205 208 215 205 202 202 205
222 294 290 293 282 281 278 281 279 169 319 313 321 325 322 316 317 314 314 314 313 314 313 312 309 304 298 291 275 253 243 238 254 259 282 279 267 269 243 234 219 210 206 204 211 224 204 202 206
301 296 302 264 193 262 303 264 233 136 306 312 322 323 319 316 315 315 314 313 313 311 310 311 310 305 296 290 276 254 236 238 245 256 244 274 270 262 253 250 217 218 208 206 200 217 222 209 204
279 248 337 68 277 275 299 289 189 213 321 317 319 319 319 318 319 317 315 313 312 311 312 310 311 307 297 290 280 264 241 245 243 262 280 256 271 262 254 242 231 226 210 207 200 201 213 212 213
58 321 322 329 200 284 239 292 76 230 272 300 318 318 320 319 321 326 321 319 317 316 316 312 315 317 308 297 278 253 240 239 255 261 257 266 262 262 252 243 231 222 207 200 199 206 204 201 211
318 320 311 307 327 269 271 273 276 237 244 282 317 324 324 323 329 328 325 325 324 325 322 315 316 327 325 311 292 256 251 244 237 246 273 278 261 254 246 243 234 227 208 203 203 208 204 196 197
286 292 301 304 333 282 268 278 287 250 227 254 324 333 333 328 328 329 332 333 334 335 330 322 331 333 331 327 321 283 270 258 244 253 254 247 247 253 245 236 235 231 219 212 213 196 188 193 180
295 304 308 313 273 294 280 287 284 228 229 253 330 339 331 327 331 335 338 341 343 335 332 325 338 336 327 322 316 292 284 270 269 256 254 253 247 252 250 236 233 227 221 219 212 198 188 193 184
300 286 311 305 322 276 294 273 232 199 201 220 329 336 331 332 331 333 338 342 341 336 332 331 336 337 324 322 315 305 278 257 264 251 228 243 263 263 255 239 243 229 222 208 202 199 188 191 191
309 104 317 319 320 316 3 296 238 186 210 223 342 340 338 337 334 331 334 338 340 335 333 333 341 345 328 325 322 322 296 276 251 280 281 279 288 273 264 249 239 234 220 216 212 204 198 196 188
261 321 308 292 259 312 179 258 177 190 220 307 345 343 338 337 335 330 331 331 334 338 339 338 348 351 338 336 335 337 321 309 332 298 288 303 291 293 276 261 239 238 230 217 213 204 205 204 200
307 311 281 203 251 248 168 262 266 209 218 317 343 344 341 333 334 333 334 335 341 345 347 349 357 356 349 347 350 356 348 352 5 345 339 348 327 325 308 261 220 205 197 196 195 195 199 196 193
17 336 327 271 253 308 168 255 280 178 211 302 330 330 333 333 335 336 340 342 342 347 353 360 3 360 356 355 3 2 6 25 45 34 15 28 22 13 9 141 163 163 163 170 171 173 169 163 164
57 10 34 299 316 313 284 240 314 116 248 271 314 309 338 342 342 337 338 338 340 347 357 4 4 1 0 6 13 13 25 44 65 67 83 75 78 68 76 110 120 128 131 123 136 132 127 128 131
116 60 87 265 201 273 247 260 144 202 312 323 344 343 355 346 342 337 337 341 343 349 358 7 7 7 12 18 24 34 43 58 71 82 97 95 95 96 103 112 107 113 113 114 116 118 114 111 111
42 139 204 159 309 296 280 281 309 341 331 319 341 347 353 343 340 336 342 346 349 352 356 11 18 21 24 34 42 47 58 74 85 99 97 100 101 104 104 103 105 105 106 102 90 111 110 104 100
157 161 135 244 243 294 310 349 69 31 319 308 328 343 352 340 330 333 346 351 351 360 9 20 28 33 40 50 58 66 70 85 94 91 96 98 103 101 102 105 103 104 100 97 89 84 99 97 93
24 171 165 208 164 237 281 280 144 94 315 300 323 336 352 332 323 337 349 349 358 6 16 28 34 41 51 63 71 73 80 87 87 87 90 97 90 96 95 100 102 98 99 97 95 92 93 89 95
Height
794 793 793 791 797 795 786 784 786 785 783 784 784 785 781 779 780 778 783 781 778 774 771 768 765 765 765 766 766 767 768 770 771 772 772 776 777 779 780 783 786 787 789 791 793 795 795 797 799
795 795 795 792 794 792 775 776 785 785 786 785 783 781 781 777 782 782 782 782 780 775 771 768 766 765 764 764 764 766 767 769 770 771 772 774 776 779 781 782 785 787 788 791 793 794 796 797 800
796 795 791 790 792 782 777 787 786 789 789 788 785 783 783 780 784 787 787 784 781 778 773 769 766 764 763 763 764 764 766 767 769 770 772 773 775 777 780 782 784 787 788 790 793 794 796 798 799
797 796 800 793 783 785 790 789 792 791 788 790 792 785 785 790 790 791 788 785 782 779 774 771 767 765 763 762 762 765 765 767 768 770 771 773 774 775 779 781 783 786 788 789 792 794 796 798 800
798 794 794 793 791 795 795 797 800 795 792 793 797 785 785 792 792 792 789 786 783 781 777 773 770 766 764 763 762 762 764 765 767 769 769 770 772 774 777 779 782 784 786 789 791 793 796 798 800
795 797 793 783 786 800 799 801 800 797 795 793 791 793 784 792 792 792 790 788 785 782 779 775 771 767 765 762 760 761 763 764 766 768 769 770 770 772 774 776 780 783 785 788 790 791 795 798 801
793 792 788 795 791 796 799 805 802 801 799 795 799 793 783 787 794 792 790 788 786 784 780 776 772 769 766 764 761 760 760 761 763 765 768 769 770 770 772 774 777 781 784 787 790 791 795 797 800
799 794 798 795 789 790 805 805 806 805 799 801 799 787 787 796 795 792 790 787 785 783 780 777 774 770 768 765 763 762 761 759 760 763 764 767 768 769 771 772 774 778 781 784 787 790 794 798 800
805 794 786 792 800 795 806 806 805 807 805 801 800 798 803 802 797 791 787 785 784 782 781 778 774 771 769 766 763 761 761 761 760 760 761 763 765 766 768 770 772 775 777 781 785 788 792 797 800
799 793 791 803 803 801 804 807 804 805 797 796 795 799 803 802 798 794 790 786 784 782 779 777 774 771 768 766 764 765 763 761 760 758 759 760 761 763 765 767 771 773 776 781 784 788 792 795 800
806 793 806 803 806 809 807 808 805 803 797 800 807 807 804 802 800 796 792 790 785 782 779 777 774 770 767 764 762 761 761 762 760 759 759 758 758 759 761 764 767 770 774 779 784 788 790 793 796
803 806 807 807 810 811 809 807 804 802 801 812 812 811 808 803 801 798 794 790 787 782 779 776 773 769 764 763 761 760 760 760 759 758 757 758 758 757 753 760 762 764 765 774 781 786 789 792 794
805 808 808 807 808 809 810 807 805 801 812 813 813 811 808 803 800 798 795 790 787 781 777 774 771 768 764 760 759 757 757 758 758 758 757 756 757 759 757 757 759 764 765 773 779 783 786 789 793
810 810 809 807 807 810 810 803 805 802 812 810 810 808 807 805 801 796 794 790 786 782 777 772 769 766 762 759 755 756 755 754 755 753 754 755 755 756 758 757 756 759 763 770 775 780 782 785 789
812 810 805 805 808 806 810 796 799 807 810 807 807 806 806 803 800 796 795 790 786 780 776 771 766 763 759 755 753 751 751 752 752 751 750 751 753 754 756 755 754 756 759 763 767 774 777 780 785
807 807 793 795 807 807 809 784 792 806 806 805 807 806 804 801 799 796 795 790 785 780 774 769 765 761 756 750 747 746 746 746 747 744 744 746 749 752 752 752 752 752 754 757 762 766 771 776 780
803 793 794 797 808 809 808 789 790 805 807 805 805 805 802 800 799 798 794 788 784 778 773 767 763 757 754 748 745 744 744 744 738 742 750 740 743 748 751 750 748 750 751 754 758 764 766 769 776
796 796 797 797 795 807 801 790 787 796 804 803 804 803 802 800 798 797 792 786 781 776 772 767 762 758 754 748 742 739 739 737 740 743 736 734 740 747 748 747 744 746 748 751 755 759 761 764 770
811 814 801 790 797 806 793 787 784 790 802 802 802 801 800 800 799 795 790 784 778 774 770 766 758 755 753 749 744 738 736 737 735 736 738 737 742 745 744 742 741 743 745 745 750 753 755 761 768
803 799 788 791 793 798 790 779 780 791 795 804 805 800 800 798 796 792 787 782 776 772 768 764 756 753 752 749 745 741 739 737 736 735 738 739 738 741 740 737 737 739 741 741 743 746 751 755 759
795 795 794 802 796 794 794 769 786 792 797 799 800 805 802 799 794 790 784 781 776 772 768 762 756 752 752 749 745 741 738 735 735 735 735 738 733 736 734 732 734 736 735 737 740 740 744 752 754
804 800 808 805 812 777 803 766 768 783 790 794 797 802 802 799 795 791 785 780 776 772 767 761 755 751 751 747 742 737 736 736 736 735 732 734 732 731 727 728 730 731 730 734 736 738 741 746 749
799 805 806 810 813 815 793 798 749 788 782 787 796 801 802 800 796 792 788 782 776 771 766 760 754 750 749 745 742 736 734 733 731 730 731 731 728 723 724 723 725 726 727 729 731 733 735 739 745
810 805 805 814 809 794 790 786 740 766 789 793 799 801 803 800 796 792 788 783 776 770 765 759 753 750 747 743 739 735 734 731 729 728 728 727 724 723 724 723 721 721 722 721 724 726 730 732 736
808 802 766 761 768 744 791 787 752 787 796 801 806 806 806 801 797 792 787 782 776 770 764 758 753 750 746 743 738 736 734 731 730 730 729 726 725 726 724 722 720 719 719 720 721 724 727 729 732
817 819 799 786 758 762 785 781 750 796 802 807 810 810 802 800 797 793 788 783 776 770 764 758 754 751 748 743 739 736 733 731 731 732 731 729 729 728 726 724 723 720 721 720 722 723 728 731 735
820 811 831 830 838 823 767 762 790 795 795 795 806 802 801 800 797 794 789 784 778 772 766 760 757 753 749 745 742 739 735 733 733 732 730 731 731 730 730 728 726 726 724 727 727 725 732 739 738
816 826 818 826 796 759 736 766 749 787 799 796 804 802 802 800 797 793 789 785 780 775 769 763 759 755 751 748 744 741 739 737 736 735 733 732 733 733 732 730 731 730 730 731 734 731 737 744 748
819 816 827 831 825 796 775 736 791 802 806 805 805 804 803 800 796 793 790 787 782 776 771 767 762 758 755 751 748 745 743 742 741 739 738 736 737 737 737 736 738 736 741 739 749 748 741 748 754
824 818 818 805 803 820 817 770 798 807 811 810 805 806 803 799 796 794 792 788 783 778 773 769 765 761 758 755 752 750 749 748 747 745 743 743 743 743 743 744 743 743 749 751 754 746 755 759 763